Starlink 34796

operational
NORAD ID: 65205 Int'l Des: 2025-176 Owner: SPXS Country: US Constellation: starlink
LEOCIRCULAR

Über Starlink 34796

Beschreibung wird geladen...

Live-Position

3D-Globus wird geladen...

Nächste Überflüge

Höhenverlauf

Altitude vs Time

uPlot chart will show altitude changes over time

Zweizeiliger Elementsatz

1 65205U 25176H 25340.92714502 .00015974 00000-0 54975-3 0 9992
2 65205 53.1594 223.9201 0000958 56.1907 303.9185 15.30232272 18911
Epoch: 6. Dez. 2025 • Age: 14 hours

Aktueller Status

Höhe 474.9 km
Geschwindigkeit 7.63 km/s
Subsatellitenpunkt 19.11°N, 27.35°W
Startdatum 14. Aug. 2025
Alter 0.3 years
Typ internet

Technische Details

Klassifizierung Payload
Masse 575.00 kg
Trockenmasse 530.00 kg
Gesamtmasse 575.00 kg
Länge 0.30 m
Durchmesser 4.10 m
Spannweite 29.00 m
Form Box + pan
Hersteller SPXS
Bus-Typ Starlink V2MO
Phasenstatus In Orbit
Besitzer/Staat SPXS/US

Große Konstellationen

Loading constellations...